Location: Croydon
(51.3762°N, 0.0982°W)
Time: 20:52:58
(UTC+01:00)

VELOX 1 - Pass Details

Date: 27 April 2019
Orbit: 629 x 644 km, 98.2° (Epoch: 21 May)

Event Time Altitude Azimuth Distance (km) Brightness Sun altitude
Exits shadow 02:42:33 34° 270° (W) 1,054 ? -21.1°
Drops below altitude 10° 02:46:20 10° 329° (NNW) 2,022 ? -20.8°
Sets 02:48:43 0° 339° (NNW) 2,936 ? -20.6°
